Date String (YYYY-MM-DD hh:mm:ss) UTC,Instrument flags,absolute air pressure of the measurement (hPa),sample flow rate (lpm),inlet stack bypass flow (lpm),air temperature of the measurement (°C),ambient temperature measured by the external sensor (°C),aerosol sample conditioner tube jacket temperature (°C),OPC LED temperature (°C),internal box temperature (°C),relative humidity of the measurement (%),span deviation,mass concentration of particles derived from Lorenz-Mie calculation of OPC scattering (μg/m³),mass concentration of particles derived from Lorenz-Mie calculation of OPC scattering (μg/m³),mass concentration of particles derived from Lorenz-Mie calculation of OPC scattering (μg/m³)
DateTimeUTC,F1_M11,P_M11,Q1_M11,Q2_M11,T1_M11,T2_M11,T3_M11,T4_M11,T5_M11,U1_M11,ZSPAN_M11,X0_M11,X2_M11,X1_M11
2023-07-19 12:00:00,SystemResetWarning,0834.1,4.99,000.00,029.5,027.8,000.0,037.8,031.1,24.7,0000.0,0008.63,0004.15,0003.68
2023-07-19 12:01:00,SystemResetWarning,0834.1,5.00,000.00,029.5,026.1,000.0,037.7,030.9,24.4,0000.0,0008.21,0004.15,0003.69
2023-07-19 12:02:00,SystemResetWarning,0834.1,5.02,000.00,029.4,025.6,000.0,037.6,030.8,24.7,0000.0,0008.24,0004.17,0003.70
2023-07-19 12:03:00,SystemResetWarning,0834.1,5.00,000.00,029.3,025.8,000.0,037.7,030.6,25.3,0000.0,0008.33,0004.19,0003.71
2023-07-19 12:04:00,SystemResetWarning,0834.1,5.00,000.00,029.3,026.2,000.0,037.7,030.6,25.6,0000.0,0008.21,0004.22,0003.72
2023-07-19 12:05:00,SystemResetWarning,0834.1,5.00,000.00,029.3,026.6,000.0,037.7,030.7,25.4,0000.0,0007.96,0004.20,0003.73
2023-07-19 12:06:00,SystemResetWarning,0834.2,5.00,000.00,029.3,026.9,000.0,037.7,030.8,25.4,0000.0,0007.46,0004.22,0003.74
2023-07-19 12:07:00,SystemResetWarning,0834.2,4.99,000.00,029.3,027.2,000.0,037.7,030.8,25.4,0000.0,0007.44,0004.25,0003.76
2023-07-19 12:08:00,SystemResetWarning,0834.2,4.99,000.00,029.3,027.4,000.0,037.8,030.9,25.7,0000.0,0007.41,0004.26,0003.77
2023-07-19 12:09:00,SystemResetWarning,0834.2,5.01,000.00,029.3,027.6,000.0,037.8,030.9,26.0,0000.0,0007.45,0004.27,0003.78
2023-07-19 12:10:00,SystemResetWarning,0834.2,5.01,000.00,029.3,027.8,000.0,037.8,031.0,25.9,0000.0,0007.47,0004.27,0003.79
2023-07-19 12:11:00,SystemResetWarning,0834.2,5.01,000.00,029.4,028.0,000.0,037.8,031.0,26.0,0000.0,0007.51,0004.25,0003.80
2023-07-19 12:12:00,SystemResetWarning,0834.2,5.00,000.00,029.4,028.1,000.0,037.8,031.1,26.2,0000.0,0007.83,0004.27,0003.82
2023-07-19 12:13:00,SystemResetWarning,0834.4,5.00,000.00,029.4,028.2,000.0,037.8,031.1,26.2,0000.0,0007.87,0004.26,0003.81
2023-07-19 12:14:00,SystemResetWarning,0834.2,4.99,000.00,029.5,028.3,000.0,037.8,031.1,26.2,0000.0,0007.94,0004.28,0003.83
2023-07-19 12:15:00,SystemResetWarning,0834.2,5.00,000.00,029.5,028.3,000.0,037.9,031.2,26.1,0000.0,0007.95,0004.29,0003.85
2023-07-19 12:16:00,SystemResetWarning,0834.2,5.00,000.00,029.5,027.8,000.0,037.8,031.2,25.9,0000.0,0008.05,0004.34,0003.87
2023-07-19 12:17:00,SystemResetWarning,0834.2,5.00,000.00,029.5,026.1,000.0,037.7,030.9,26.0,0000.0,0008.04,0004.33,0003.89
2023-07-19 12:18:00,SystemResetWarning,0834.2,5.00,000.00,029.4,025.6,000.0,037.6,030.8,26.1,0000.0,0007.92,0004.32,0003.90
2023-07-19 12:19:00,SystemResetWarning,0834.1,5.01,000.00,029.3,025.8,000.0,037.7,030.6,26.2,0000.0,0007.90,0004.31,0003.90
2023-07-19 12:20:00,SystemResetWarning,0834.2,5.00,000.00,029.3,026.2,000.0,037.7,030.6,26.1,0000.0,0007.84,0004.31,0003.91
2023-07-19 12:21:00,SystemResetWarning,0834.1,4.99,000.00,029.3,026.5,000.0,037.7,030.7,25.7,0000.0,0007.82,0004.34,0003.92
2023-07-19 12:22:00,SystemResetWarning,0834.2,5.00,000.00,029.3,026.9,000.0,037.7,030.8,25.4,0000.0,0007.84,0004.38,0003.95
2023-07-19 12:23:00,SystemResetWarning,0834.2,5.00,000.00,029.3,027.2,000.0,037.7,030.8,25.2,0000.0,0007.59,0004.42,0003.96
2023-07-19 12:24:00,SystemResetWarning,0834.2,5.01,000.00,029.3,027.4,000.0,037.8,030.9,25.3,0000.0,0007.61,0004.46,0003.97
2023-07-19 12:25:00,SystemResetWarning,0834.2,5.01,000.00,029.3,027.6,000.0,037.8,030.9,25.2,0000.0,0007.76,0004.50,0003.98
2023-07-19 12:26:00,SystemResetWarning,0834.2,4.99,000.00,029.3,027.8,000.0,037.8,031.0,25.2,0000.0,0007.93,0004.53,0003.98
2023-07-19 12:27:00,SystemResetWarning,0834.2,4.99,000.00,029.4,027.9,000.0,037.8,031.0,25.0,0000.0,0007.95,0004.53,0003.97
2023-07-19 12:28:00,SystemResetWarning,0834.2,5.00,000.00,029.4,028.1,000.0,037.8,031.0,25.0,0000.0,0007.96,0004.53,0003.96
2023-07-19 12:29:00,SystemResetWarning,0834.2,5.00,000.00,029.4,028.2,000.0,037.8,031.1,24.8,0000.0,0008.02,0004.54,0003.97
2023-07-19 12:30:00,SystemResetWarning,0834.2,5.00,000.00,029.5,028.3,000.0,037.9,031.1,24.6,0000.0,0008.28,0004.58,0003.97
2023-07-19 12:31:00,SystemResetWarning,0834.2,5.00,000.00,029.5,028.2,000.0,037.9,031.1,24.7,0000.0,0008.41,0004.62,0003.96
2023-07-19 12:32:00,SystemResetWarning,0834.2,5.00,000.00,029.5,026.8,000.0,037.8,031.0,24.5,0000.0,0008.56,0004.62,0003.96
2023-07-19 12:33:00,SystemResetWarning,0834.2,5.02,000.00,029.4,025.6,000.0,037.7,030.8,24.6,0000.0,0008.60,0004.60,0003.94
2023-07-19 12:34:00,SystemResetWarning,0834.2,5.00,000.00,029.3,025.7,000.0,037.6,030.6,24.5,0000.0,0008.50,0004.53,0003.91
2023-07-19 12:35:00,SystemResetWarning,0834.2,5.00,000.00,029.3,026.0,000.0,037.7,030.6,24.7,0000.0,0008.38,0004.47,0003.89
2023-07-19 12:36:00,SystemResetWarning,0834.2,5.00,000.00,029.2,026.4,000.0,037.7,030.6,24.8,0000.0,0008.08,0004.40,0003.86
2023-07-19 12:37:00,SystemResetWarning,0834.3,5.01,000.00,029.2,026.8,000.0,037.7,030.7,25.0,0000.0,0007.91,0004.35,0003.83
2023-07-19 12:38:00,SystemResetWarning,0834.3,5.01,000.00,029.2,027.1,000.0,037.7,030.8,25.0,0000.0,0007.85,0004.31,0003.79
2023-07-19 12:39:00,SystemResetWarning,0834.4,5.00,000.00,029.3,027.3,000.0,037.8,030.8,25.0,0000.0,0007.84,0004.29,0003.77
2023-07-19 12:40:00,SystemResetWarning,0834.2,4.99,000.00,029.3,027.6,000.0,037.8,030.9,24.8,0000.0,0007.99,0004.29,0003.74
2023-07-19 12:41:00,SystemResetWarning,0834.5,5.00,000.00,029.3,027.7,000.0,037.8,030.9,24.8,0000.0,0007.69,0004.24,0003.71
2023-07-19 12:42:00,SystemResetWarning,0834.4,5.01,000.00,029.3,027.9,000.0,037.8,031.0,25.0,0000.0,0007.47,0004.14,0003.68
2023-07-19 12:43:00,SystemResetWarning,0834.2,5.00,000.00,029.4,028.0,000.0,037.8,031.0,24.9,0000.0,0007.33,0004.11,0003.66
2023-07-19 12:44:00,SystemResetWarning,0834.4,4.99,000.00,029.4,028.2,000.0,037.8,031.1,25.0,0000.0,0007.30,0004.12,0003.63
2023-07-19 12:45:00,SystemResetWarning,0834.4,5.00,000.00,029.4,028.3,000.0,037.8,031.1,24.9,0000.0,0007.27,0004.13,0003.62
2023-07-19 12:46:00,SystemResetWarning,0834.5,4.99,000.00,029.5,027.6,000.0,037.8,031.1,24.8,0000.0,0007.46,0004.15,0003.61
2023-07-19 12:47:00,SystemResetWarning,0834.3,5.01,000.00,029.4,026.0,000.0,037.7,030.9,24.6,0000.0,0007.59,0004.17,0003.60
2023-07-19 12:48:00,SystemResetWarning,0834.3,5.02,000.00,029.4,025.8,000.0,037.6,030.8,24.7,0000.0,0007.67,0004.18,0003.59
2023-07-19 12:49:00,SystemResetWarning,0834.7,5.01,000.00,029.3,026.0,000.0,037.7,030.7,25.0,0000.0,0007.89,0004.20,0003.60
2023-07-19 12:50:00,SystemResetWarning,0834.5,4.99,000.00,029.3,026.4,000.0,037.7,030.7,25.0,0000.0,0007.87,0004.23,0003.60
2023-07-19 12:51:00,SystemResetWarning,0834.3,5.00,000.00,029.3,026.7,000.0,037.7,030.7,25.0,0000.0,0008.04,0004.19,0003.59
2023-07-19 12:52:00,SystemResetWarning,0834.3,5.00,000.00,029.3,027.0,000.0,037.7,030.8,25.1,0000.0,0008.33,0004.16,0003.59
2023-07-19 12:53:00,SystemResetWarning,0834.4,4.99,000.00,029.3,027.3,000.0,037.8,030.9,25.1,0000.0,0008.39,0004.18,0003.58
2023-07-19 12:54:00,SystemResetWarning,0834.4,5.00,000.00,029.3,027.5,000.0,037.8,030.9,25.2,0000.0,0008.27,0004.15,0003.57
2023-07-19 12:55:00,SystemResetWarning,0834.3,5.00,000.00,029.3,027.7,000.0,037.8,031.0,25.1,0000.0,0008.23,0004.11,0003.57
2023-07-19 12:56:00,SystemResetWarning,0834.4,5.00,000.00,029.4,027.9,000.0,037.8,031.0,25.0,0000.0,0008.12,0004.06,0003.57
2023-07-19 12:57:00,SystemResetWarning,0834.4,5.00,000.00,029.4,028.0,000.0,037.8,031.0,25.0,0000.0,0008.32,0004.07,0003.57
2023-07-19 12:58:00,SystemResetWarning,0834.4,5.00,000.00,029.4,028.2,000.0,037.8,031.1,24.9,0000.0,0008.30,0004.06,0003.56
2023-07-19 12:59:00,SystemResetWarning,0834.4,4.99,000.00,029.5,028.3,000.0,037.9,031.1,24.9,0000.0,0008.26,0004.04,0003.57
